This is the latest recevied weather packets stored in our database for station/object KB1RMA-4. If no packets are shown the sender has not sent any weather packets the latest 1 day(s).
| Time | Temp. | Humidity | Pressure | Rain* | Wind** | Luminosity | Snow |
|---|---|---|---|---|---|---|---|
| 1778069003 | 17.78° C | 67% | 1009.6 hPa | 0 mm | - | 104 W/m² | - |
| 1778068096 | 17.78° C | 68% | 1009.7 hPa | 0 mm | - | 120 W/m² | - |
| 1778067492 | 17.22° C | 68% | 1010 hPa | 0 mm | - | 88 W/m² | - |
| 1778066583 | 17.22° C | 69% | 1009.9 hPa | 0 mm | - | 122 W/m² | - |
| 1778066280 | 17.22° C | 69% | 1009.9 hPa | 0 mm | - | 118 W/m² | - |
| 1778065069 | 16.11° C | 71% | 1010 hPa | 0 mm | - | 42 W/m² | - |
| 1778064766 | 16.67° C | 71% | 1009.9 hPa | 0 mm | - | 28 W/m² | - |
| 1778063858 | 16.67° C | 71% | 1010 hPa | 0 mm | - | 42 W/m² | - |
| 1778063253 | 16.11° C | 71% | 1010 hPa | 0 mm | - | 27 W/m² | - |
| 1778062951 | 16.11° C | 70% | 1010 hPa | 0 mm | - | 19 W/m² | - |
| 1778062647 | 16.11° C | 70% | 1009.9 hPa | 0 mm | - | 18 W/m² | - |
| 1778062042 | 16.11° C | 71% | 1009.9 hPa | 0 mm | - | 21 W/m² | - |
| 1778061740 | 16.11° C | 70% | 1009.7 hPa | 0 mm | - | 22 W/m² | - |
| 1778061438 | 16.11° C | 71% | 1009.8 hPa | 0 mm | - | 25 W/m² | - |
| 1778060832 | 16.11° C | 71% | 1009.6 hPa | 0 mm | - | 15 W/m² | - |
| 1778059320 | 16.11° C | 70% | 1009.8 hPa | 0 mm | - | 0 W/m² | - |
| 1778059018 | 16.11° C | 69% | 1009.8 hPa | 0 mm | - | 0 W/m² | - |
| 1778058715 | 16.11° C | 69% | 1009.8 hPa | 0 mm | - | 0 W/m² | - |
| 1778058109 | 16.67° C | 68% | 1009.9 hPa | 0 mm | - | 0 W/m² | - |
| 1778057806 | 16.67° C | 68% | 1009.8 hPa | 0 mm | - | 0 W/m² | - |
| 1778057502 | 16.67° C | 68% | 1009.8 hPa | 0 mm | - | 0 W/m² | - |
| 1778056896 | 16.67° C | 68% | 1009.7 hPa | 0 mm | - | 0 W/m² | - |
| 1778055682 | 16.67° C | 67% | 1009.7 hPa | 0 mm | - | 0 W/m² | - |
| 1778055381 | 16.67° C | 67% | 1009.6 hPa | 0 mm | - | 0 W/m² | - |
| 1778055078 | 16.67° C | 67% | 1009.7 hPa | 0 mm | - | 0 W/m² | - |
* Rain latest hour (hover to see other rain measurements)
** Current wind speed in m/s (hover to see current wind gust speed)